SL-3 R/B (10114 NORAD) Tracking and Keplerian Element Data

This shows tracking and keplerian element data for the satellite.

Feedback or suggestion? Click here.




ElementValue
Catalog10114
NameSL-3 R/B
Epoch Orbit60695
Epoch Day34.93603633
Epoch Year2025
RAAN188.638
Inclination97.5342
Eccentricity0.0007935
Argument of Perigee279.6933
Mean Anonmoly80.3414
Mean Motion15.3513448
Decay Rate0.00013243
L11 10114U 77057B 25034.93603633 .00013243 00000+0 39020-3 0 9999
L22 10114 97.5342 188.6380 0007935 279.6933 80.3414 15.35134480606956



Live tracking and technical data element details for SL-3 R/B (NORAD 10114). SL-3 R/B can be tracked NOW for your location showing map with azimuth and elevation plus other details from your city location.







IsCatalogInMostPopularTable: catalog: 10114, numindb: 309
Update: records affected: 1



GetName: 10114 SL-3 R/B

Hit Count: updated at: Sat, 24 May 2025 16:45:10 GMT